Weather in Turiysk

Ukraine / Volyn Oblast     51˚05′18″N   24˚31′28″E
temp.,
°C
wind,
m/s
gust,
m/s
humid.,
%
clouds,
%
prec.,
mm/h
press.,
hPa
HPBL,
m
1 december, tue
tue123:00−2˚ssw2488100 0.0 1028183
02:00−3˚ssw348196 0.1 102790
05:00−4˚s338521 0.0 102781
08:00−4˚sse358519 0.0 1027112
11:00−1˚sse46740 0.0 1027372
14:00se46710 0.0 1027450
17:00−3˚ese48830 0.0 1027169
20:00−3˚ese38870 0.0 1028198
2 december, wed
wed223:00−4˚ese37890 0.0 1029193
02:00−4˚e36880 0.0 1029146
05:00−5˚e37910 0.0 1028156
08:00−5˚e36952 0.0 1028154
11:00−2˚e358974 0.0 1027262
14:00e358987 0.0 1026314
17:00−1˚e379498 0.0 1025274
20:00−2˚ese479195 0.0 1024379
3 december, thu
thu323:00−1˚sse478697 0.0 1024539
02:00−1˚se378799 0.0 1023346
05:00−1˚se4890100 0.0 1021390
08:00−2˚se5109374 0.0 1021314
11:00se698630 0.0 1019507
14:00se698163 0.0 1018536
17:00−2˚se6128830 0.0 1017405
20:00−2˚se7148626 0.0 1017451
4 december, fri
fri423:00−2˚se6138538 0.0 1016446
02:00−1˚se6139049 0.0 1014402
05:00+2˚se6149284 0.0 1012523
08:00+4˚se7169092 0.0 1010668
11:00+6˚se81687100 0.0 1009886
14:00+7˚se71684100 0.0 1008897
17:00+6˚se7168789 0.0 1008500
20:00+5˚se6159082 0.0 1009444
5 december, sat
sat523:00+7˚se71689100 0.0 1010526
02:00+7˚se6149099 0.0 1010489
05:00+7˚se61392100 0.1 1010557
08:00+7˚se51391100 0.7 1011468
11:00+9˚se61287100 0.0 1011680
14:00+10˚se61281100 0.0 1011733
17:00+8˚se6138893 0.0 1011457
20:00+8˚se6159179 0.0 1011493